Weather in Sekachi

Russia / Volgograd Oblast     50°29′50″N   43°37′21″E
temp.,
°C
wind,
m/s
gust,
m/s
humid.,
%
clouds,
%
prec.,
mm/h
press.,
hPa
HPBL,
m
27 july, tue
tue2700:00+18ene36520 0.0 102279
03:00+17ese33550 0.0 102221
06:00+18e22530 0.0 102267
09:00+25ese12330 0.0 1022871
12:00+28n34280 0.0 10202402
15:00+29nnw352853 0.0 10192954
18:00+28nw343193 0.0 10182124
21:00+24ne244683 0.0 101875
28 july, wed
wed2800:00+22ne235279 0.0 101841
03:00+18n33663 0.0 101837
06:00+20n246420 0.0 1018108
09:00+26n22428 0.0 1018757
12:00+29nnw22324 0.0 10162304
15:00+30nnw332985 0.0 10152651
18:00+30nw123079 0.0 10141990
21:00+25ene114197 0.0 101416
29 july, thu
thu2900:00+23sse454485 0.0 101369
03:00+21s4747100 0.0 1013106
06:00+22ssw384862 0.0 1012209
09:00+29wsw6936100 0.0 10111026
12:00+33wsw8102995 0.0 10092957
15:00+31w8113762 0.0 10092522
18:00+27wsw51047100 0.1 1009567
21:00+24wsw345548 0.1 100947
30 july, fri
fri3000:00+23sw33618 0.1 100930
03:00+21wsw3369100 0.3 100942
06:00+23sw126499 0.0 100954
09:00+27wnw345372 0.8 1010564
12:00+32wsw463798 0.3 10092227
15:00+32sw6633100 0.4 10081949
18:00+27n345587 0.8 1007296
21:00+21ssw6988100 5.4 1009140
31 july, sat
sat3100:00+21wsw358391 1.1 100990
03:00+20ssw3486100 2.0 100970
06:00+22s2382100 0.0 100989
09:00+27ssw45611 0.3 1009582
12:00+32sw45403 0.0 10081900
15:00+33sw4732100 0.0 10072617
18:00+25se457027 1.2 1008189
21:00+24nnw116667 1.4 100911